Погода в Омолоне

Погода в Омолоне : погода сейчас, прогноз погоды и архив. Всё, что Вы хотите узнать о погоде в Омолоне!

Поиск расширенной информации на нашем сайте:

Другие новости

Новости СМИ2

Главная страница сайта

Новости сайта

03.07.2017

Напоминаем, что на нашем специализированном сайте Метеоцентр.Азия вы можете получить высокодетализированные автоматические прогнозы погоды по пунктам России, СНГ и мира в авиационном формате (включающие направление и скорость ветра, видимость, явления погоды, количество и форму облачности, нижнюю и верхнюю границу облачности).


Погода в Омолоне - сегодня

Время (UTC), дата Ветер
(°,м/с) 
Видим.   Явления Облачность Т
(°С)
Тd
(°С)
f(%) Тe
(°С)
Pmin
(гПа)
dP
(гПа)
Po
(мм)
O2
(г/м3)
Тmin Tmax R s Состояние
почвы
18 15.02.18 110 (В) 1{01}  23000 м  снежные кристаллы  10/0 верхняя 
[Cs]
-34.1 -37.4 72 -35  1013  1.3  732  339           
21 15.02.18 тихо () {01}  22000 м  снежные кристаллы  10/0 средняя, верхняя 
[Ac trans|Cs]
-33.4 -36.9 71 -33  1013.6  0.7  733  338  -35.2    0.0  70  равномерный
сухой снег
100% 
03 16.02.18 040 (СВ) 1{02}  50000 м  {снег}  9/0 средняя, верхняя 
[Ac trans|Ci fib]
-24.6 -28.4 71 -25  1012.3  -0.5  733  326           
06 16.02.18 тихо () {02}  50000 м  {снег}  8/0 средняя, верхняя 
[Ac trans|Ci fib]
-27.1 -29.9 77 -27  1011.9  -0.6  732  329           
15 16.02.18 010 (С) 1{02}  50000 м  {снег}  10/3 600 м средняя, верхняя 
[Sc|Ac trans|Cs]
-24 -27.2 75 -24  1008.4  -1.4  730  324           
18 16.02.18 050 (СВ) 1{03}  10 км  слаб. снег  10/5 600 м средняя 
[Sc|As op]
-23.3 -26.4 76 -24  1007.2  -1.1  729  323           
21 16.02.18 140 (ЮВ) 1{02}  50000 м  {снег}  8/0 средняя, верхняя 
[Ac trans|Ci fib]
-23.6 -26.3 78 -24  1007.1  -0.2  729  323  -28    0.4  71  равномерный
сухой снег
100% 
09 17.02.18 300 (СЗ) 3{05}  21000 м  снежные кристаллы  10/8 840 м средняя 
[Sc|Ac As]
-21.2 -24.7 73 -26  1009.1  1.2  731  321    -20.4  0.0     
15 17.02.18 310 (СЗ) 2{05}  14000 м  слаб. снег  10/8 600 м средняя 
[Sc|As op]
-22.6 -25.7 76 -26  1012.1  0.9  733  324           
18 17.02.18 тихо () {03}  25000 м  снежные кристаллы  10/5 600 м средняя, верхняя 
[Sc|Ac trans|Cs]
-24.5 -27.1 79 -25  1013.3  733  326           
21 17.02.18 тихо () {02}  25000 м  снежные кристаллы  10/3 600 м средняя, верхняя 
[Sc|Ac trans|Cs]
-25.3 -28 78 -25  1014.4  0.9  734  328  -26.6    0.7  71  равномерный
сухой снег
100% 
03 18.02.18 330 (СЗ) 1{02}  23000 м  снежные кристаллы  10/3 1000 м средняя, верхняя 
[Sc|Ac trans|Cs]
-23.8 -27.1 74 -24  1013  -1  733  325           
06 18.02.18 290 (З) 3{05}  50000 м  {снег}  9/6 1000 м средняя 
[Sc|Ac trans]
-22.4 -26.1 72 -27  1011.9  -0.7  733  323           
12 18.02.18 300 (СЗ) 2{05}  50000 м    9/6 1000 м средняя 
[Sc|Ac trans]
-22.5 -26 73 -25  1010.8  -0.7  731  323           
15 18.02.18 300 (СЗ) 2{05}  50000 м    10/6 1000 м средняя 
[Sc|Ac und]
-23.5 -26.7 75 -27  1010.2  -0.8  731  324           
18 18.02.18 310 (СЗ) 2{07}  50000 м    10/8 1000 м средняя 
[Sc|Ac und]
-23.9 -27.1 75 -27  1009.6  -0.6  731  324           
21 18.02.18 110 (В) 1{04}  23000 м  снежные кристаллы  10/4 600 м средняя, верхняя 
[Sc|Ac trans|Cs]
-26 -28.5 79 -27  1009.9  731  327  -26.3    0.0  71  равномерный
сухой снег
100% 
03 19.02.18 290 (З) 3{06}  9000 м  слаб. снег  10/3 600 м средняя, верхняя 
[Sc|Ac trans|Cs]
-21.4 -25.2 71 -26  1008.6  -0.6  730  321           
06 19.02.18 300 (СЗ) 3{06}  12000 м  слаб. снег  10/0 средняя, верхняя 
[Ac trans|Cs]
-21.9 -25.5 73 -26  1008.3  -0.4  730  321           
15 19.02.18 300 (СЗ) 3{07}  17000 м  слаб. снег  10/8 600 м средняя, верхняя 
[Sc|Ac trans|Cs]
-22.6 -25.8 75 -27  1005.2  -2.1  728  321           
18 19.02.18 300 (СЗ) 4{08}  15000 м  слаб. снег  10/8 600 м средняя, верхняя 
[Sc|Ac trans|Cs]
-23 -26.5 73 -29  1003.8  -1.4  727  321           
21 19.02.18 300 (СЗ) 3{09}  50000 м  пыльная буря{снег}  10/0 средняя, верхняя 
[Ac trans|Cs]
-24.1 -27.9 71 -29  1002.7  -1.2  726  322  -24.1    0.9  71  равномерный
сухой снег
100% 
03 20.02.18 290 (З) 6{10}  18000 м  слаб. снег  10/3 1000 м средняя, верхняя 
[Sc|Ac trans|Cs]
-22.4 -26.3 71 -30  1001.2  -0.5  725  320           
06 20.02.18 290 (З) 5{10}  15000 м  слаб. снег  10/0 средняя, верхняя 
[Ac trans|Cs]
-22.4 -25.7 74 -29  1002.8  1.6  726  320           
15 20.02.18 тихо () {05}  50000 м    5/0 верхняя 
[Ci fib]
-26.4 -29.2 77 -26  1008.5  1.7  730  327           
Время (UTC), дата Ветер
(°,м/с) 
Видим.   Явления Облачность Т
(°С)
Тd
(°С)
f(%) Тe
(°С)
Pmin
(гПа)
dP
(гПа)
Po
(мм)
O2
(г/м3)
Тmin Tmax R s Состояние
почвы

Для получения пояснительной информации подведите курсор к названию столбца.

ПОГОДА в Омолоне - архив

Всё, что Вы хотите узнать о погоде в Омолоне - удобно и подробно!

Выберите нужную дату (начиная с 1 января 2015* года) и нажмите кнопку "Найти".
Будут отображены архивные сводки погоды по пункту Омолон, начиная с указанной даты.


Отображать данные в формате CSV (для использования в таблицах Excel)


Внимание! Наш архив погоды предназначен исключительно для личного некоммерческого использования в познавательных целях. Если Вам необходимы официальные справки о состоянии погоды (для производственных, юридических, коммерческих и т.п. целей), обращайтесь в органы Росгидромета.

*Примечание: данная дата относится к архиву по метеостанциям СССР (Россия, СНГ, Балтия).
Архив по метеостанциям Зарубежной Европы и Азии (кроме Китая) хранится 10 дней, по другим регионам земного шара (Китай, Африка, Америка, Австралия, Океания) - 1 день.

Омолон - район местоположения метеостанции


Название, широта, долгота, высота метеостанции:
Омолон 65.2°ш. 160.5°д. 264 м над ур. моря [Российская Федерация]

Дополнительная информация

В oтличие oт бoльшинства пoгoдных сайтoв мы публикуем пoдрoбную метеoинфoрмацию в детальнoм прoфессиoнальнoм фoрмате.

Характеристики температуры и влажнoсти вoздуха измеряются на высoте 2 м в тени вдали oт зданий и деревьев.
Скoрoсть ветра измеряется на высoте 10 м (на урoвне рoста челoвека скoрoсть ветра ниже в 1.5-2 раза). Если метеoстанция нахoдится в гoрoде или в лесу, тo скoрoсть ветра занижена на 2-4 м/с пo сравнению с oткрытым местoм. Скoрoсть ветра над акватoриями крупных рек и oзёр, а также на вершинах хoлмoв на 2-5 м/с выше, чем в oбычных услoвиях.
Атмoсфернoе давление в разных тoчках местнoсти мoжет значительнo oтличаться oт давления на метеoстанции, в зависимoсти oт услoвий рельефа (при пoдъёме на 10 м давление пoнижается примернo на 1 мм рт.ст.).